Volver al catálogo

STARLINK-35796

ActivoComunicacionesVLEO
NORAD 66541·PAYLOAD·🇺🇸 United States

Lanzado Nov 19, 2025 desde Cape Canaveral Space Force Station

Loading…

Próximos Pases (próximas 24 horas)

TLE

ActualizadoSource: CelesTrak SupGP

Época: Sep 15, 2026, 03:19 UTC

1 66541C 25265AB  26258.13868056  .00000652  00000+0  23606-4 0  2583
2 66541  43.0003 288.1379 0001170 262.8517 178.9765 15.27577801    19

Sigue STARLINK-35796 en tiempo real con AllMySat

Download on the App Store